Theta_e
306 304 305 306 308 310 310 315 317 313 313 310 307 307 304 302 300 299 298 297 296 294 293 292 291 290 289 287 288 287 287 287 288 286 287 287 288 288 287 287 286 287 287
301 303 304 305 309 311 311 313 312 311 312 312 304 308 302 299 297 297 295 295 293 292 292 290 289 289 288 287 286 286 285 285 286 284 284 281 283 286 287 286 287 285 286
302 302 303 306 309 310 311 311 309 309 307 304 302 299 298 296 295 294 293 293 291 291 290 289 288 288 288 286 286 285 285 284 285 286 282 279 278 281 284 285 285 284 285
301 302 302 306 309 310 311 309 308 306 304 304 302 300 299 296 295 293 292 289 289 289 289 289 288 287 287 285 286 286 284 284 282 284 286 283 283 279 278 282 284 283 285
303 302 303 308 309 309 308 306 305 304 302 302 303 300 297 295 293 291 289 287 287 288 288 287 287 286 286 285 284 283 283 283 282 282 282 281 282 280 279 278 279 283 284
301 303 304 307 307 306 305 304 304 301 301 300 298 300 296 292 290 288 287 286 286 286 286 286 285 285 285 284 284 283 282 282 281 281 280 280 279 279 278 277 279 279 281
299 301 304 306 305 305 304 304 303 300 299 300 300 297 294 292 289 287 287 285 285 284 284 284 284 283 284 284 283 282 282 281 280 280 280 281 280 281 280 279 278 278 280
299 302 305 308 306 305 304 305 302 298 298 298 294 292 291 290 289 287 286 285 284 284 283 283 283 283 283 283 282 282 282 281 280 280 280 280 281 281 280 279 278 276 276
299 302 305 307 305 304 303 302 300 296 294 292 291 289 289 288 286 285 284 284 284 285 283 282 282 282 282 282 281 281 281 280 280 280 280 279 280 281 281 280 280 278 274
299 302 305 304 302 302 298 298 298 294 290 289 288 287 285 285 284 284 283 283 283 283 282 282 282 282 282 281 281 280 281 280 280 281 280 279 280 280 280 280 280 280 278
300 302 302 299 296 295 296 293 292 289 288 287 285 285 284 284 283 283 282 282 282 282 282 282 282 282 281 281 280 280 280 280 280 280 280 280 280 279 280 280 280 279 279
300 301 298 295 295 293 292 291 290 288 286 285 284 283 283 283 282 281 281 282 281 282 282 282 281 281 281 280 279 279 280 279 279 279 279 279 282 279 279 280 279 279 280
297 295 295 294 292 291 289 289 288 285 285 285 284 283 282 282 281 281 281 282 281 281 281 281 281 280 281 280 279 280 280 280 279 279 279 279 279 278 279 279 279 280 282
297 296 295 293 291 290 288 286 284 285 284 284 283 282 281 281 281 281 281 281 281 280 280 280 280 280 280 280 280 281 281 280 280 280 279 279 279 279 279 280 280 282 280
296 295 294 291 289 287 286 285 284 284 284 283 283 282 281 282 281 281 281 281 281 280 280 280 279 279 279 282 282 283 281 280 278 279 279 280 282 286 285 283 282 281 280
298 296 294 291 289 287 285 285 284 283 284 283 282 282 282 282 281 280 280 280 280 279 279 278 278 278 280 285 288 287 281 280 279 278 279 279 283 282 287 287 287 286 283
298 296 293 291 289 287 286 284 284 283 283 283 282 282 282 281 280 280 280 279 278 278 277 277 277 276 276 285 288 288 282 280 278 278 279 280 282 283 280 284 286 287 286
298 297 294 291 288 286 285 283 284 283 283 282 282 282 281 280 280 279 278 278 277 277 276 276 276 275 277 285 287 287 280 279 278 279 278 278 279 280 283 283 284 280 280
299 297 295 291 287 285 284 284 283 283 282 281 281 281 280 279 279 278 277 276 276 276 276 276 275 274 275 284 286 285 280 279 278 279 279 279 281 285 287 284 280 279 278
297 293 290 288 285 284 284 283 282 282 281 281 280 280 280 279 277 277 276 276 276 276 275 276 275 278 275 282 285 285 280 277 280 279 280 284 283 286 287 281 279 276 276
290 289 288 286 284 284 284 282 281 280 280 280 280 279 278 277 276 276 276 275 275 274 274 275 274 275 276 278 285 286 282 280 281 279 280 281 285 286 285 284 278 278 282
287 286 284 283 283 284 283 281 280 279 280 279 278 277 277 279 279 277 276 276 274 273 273 274 275 276 276 282 283 285 286 285 280 280 280 280 285 284 283 281 283 284 282
284 284 282 281 281 282 283 280 278 279 279 277 276 276 277 277 277 277 276 275 274 273 273 274 274 276 278 277 283 285 285 285 282 281 283 284 282 281 279 280 282 281 275
282 283 282 280 278 279 280 279 279 278 277 275 275 276 276 275 275 276 277 275 274 273 274 275 276 275 277 277 278 279 279 283 281 282 279 280 279 279 278 277 277 276 275
282 283 281 279 277 278 278 278 277 277 275 275 275 275 275 275 274 275 274 275 275 276 276 276 276 276 276 278 283 282 281 281 281 281 276 274 274 273 274 274 275 275 275
281 280 279 278 277 277 276 276 276 276 275 275 276 275 275 274 274 274 274 280 281 283 283 282 281 279 282 283 283 284 284 283 282 276 273 272 273 272 273 273 273 274 274
Wind_Speed
12 7 6 7 6 5 6 7 10 10 11 9 8 7 7 6 6 6 8 8 6 7 8 5 5 4 6 5 4 2 5 5 5 4 5 3 2 3 2 1 1 1 3
6 7 6 6 7 5 7 7 8 9 8 7 4 4 6 6 6 6 7 6 6 7 7 6 5 6 5 5 5 6 3 3 5 3 1 5 6 4 7 4 3 4 4
12 8 8 9 7 7 8 8 9 8 8 11 11 9 9 7 5 5 5 4 6 7 7 7 6 5 4 4 5 4 5 3 3 5 3 4 3 4 4 4 3 5 5
9 8 8 8 10 8 6 8 10 9 10 13 13 18 11 10 4 5 5 4 6 7 7 7 6 6 4 6 4 4 3 2 3 3 3 0 2 3 6 3 5 3 8
15 12 12 14 6 7 8 7 9 9 9 10 12 10 9 7 8 7 10 7 6 7 6 6 6 6 4 5 5 4 5 2 2 1 2 2 2 2 3 9 5 9 7
13 12 8 9 8 6 7 8 11 7 8 9 8 13 17 14 11 7 7 5 4 4 6 6 6 5 5 5 3 3 4 2 1 0 1 2 1 3 2 5 11 12 7
9 10 13 12 11 11 10 9 12 9 8 10 10 11 14 14 13 10 7 7 4 3 5 4 5 4 4 4 4 3 3 1 1 2 2 1 2 2 2 4 9 10 9
8 12 14 15 15 13 13 12 11 11 9 9 9 9 11 8 7 6 6 5 4 5 4 5 5 5 5 4 3 2 2 1 2 4 3 3 3 2 2 3 7 13 5
9 12 12 13 15 14 13 14 12 10 9 9 9 9 10 10 9 8 7 5 6 5 6 6 6 5 4 3 3 2 3 3 3 4 4 3 3 3 4 4 3 5 11
10 10 11 10 9 11 10 11 12 13 10 9 9 9 10 10 9 8 8 7 6 6 6 6 5 4 3 3 3 3 3 3 3 3 4 4 4 5 4 4 5 5 9
14 14 13 10 10 10 11 12 13 14 11 10 10 11 9 9 8 8 7 6 6 6 6 5 4 4 3 3 3 3 4 5 5 5 5 6 6 4 4 4 5 7 8
10 11 12 14 14 13 11 12 12 13 11 10 11 10 10 9 9 7 7 6 7 5 6 5 4 3 3 3 3 4 5 5 6 6 6 7 6 6 6 6 9 9 10
8 11 13 13 12 12 12 11 11 12 11 11 12 10 9 9 8 7 7 6 6 6 5 5 4 3 3 5 4 4 6 6 6 6 6 7 6 7 7 8 9 9 8
9 9 11 12 12 11 12 11 11 12 11 11 10 10 8 8 7 7 6 6 6 6 5 4 3 3 4 4 5 5 5 5 5 5 6 6 7 8 10 9 9 9 10
10 10 11 11 12 13 11 10 11 11 11 11 10 8 7 7 7 7 6 6 6 5 4 3 3 4 4 4 6 5 5 4 5 6 7 7 11 19 16 11 11 13 12
10 9 11 12 12 13 12 12 11 11 10 10 10 8 8 7 7 6 6 6 5 4 3 4 4 5 4 11 13 11 4 4 6 7 8 8 14 13 21 23 26 23 15
12 13 13 13 12 12 13 13 12 10 10 10 8 8 7 7 6 6 6 5 4 3 3 4 4 5 5 12 15 16 4 5 6 8 9 8 8 15 11 19 25 22 22
11 11 10 11 11 11 11 12 11 10 10 9 8 7 7 7 6 6 5 4 2 3 3 3 4 5 5 13 15 17 5 5 8 9 9 9 11 10 17 17 10 11 11
10 9 9 11 12 13 13 13 11 10 10 9 8 7 7 7 6 6 4 2 3 3 2 3 5 5 6 14 17 15 5 6 9 9 7 8 10 20 28 16 14 14 12
13 12 12 13 13 11 13 14 11 10 9 8 7 7 7 7 6 5 4 2 2 1 3 5 4 8 6 14 17 15 5 6 7 6 6 13 18 27 26 17 14 12 15
12 12 11 11 12 13 14 13 11 9 7 9 8 7 6 6 6 4 2 2 3 4 4 5 5 6 7 8 17 18 8 7 8 8 8 7 24 26 27 25 10 14 18
11 12 13 12 10 11 14 12 10 8 9 9 9 7 6 5 4 5 3 3 4 4 5 5 6 4 6 11 14 18 19 19 10 10 8 11 26 27 25 18 23 24 20
11 10 13 14 9 8 12 13 7 10 10 9 7 7 6 5 4 4 3 2 3 3 4 4 4 5 5 5 16 18 20 20 13 9 18 24 24 23 15 20 22 20 9
11 12 14 13 10 9 11 12 10 9 9 8 7 5 5 5 4 3 2 2 3 3 4 4 5 5 5 5 6 6 7 13 11 14 9 16 18 17 17 13 11 8 9
10 10 12 12 11 11 11 8 8 9 9 7 6 5 4 3 3 2 1 2 3 2 4 4 4 5 6 7 16 15 10 10 13 16 7 8 8 9 9 9 10 9 9
11 12 12 14 11 11 9 7 7 8 8 6 4 4 3 2 2 3 4 6 7 11 12 13 10 6 14 19 20 21 22 22 22 8 8 8 8 9 10 10 11 10 13
Wind_Direction
257 256 240 216 200 196 148 141 135 148 139 135 129 123 125 116 91 86 85 86 108 103 93 96 88 76 73 67 43 81 46 16 349 3 336 330 350 282 292 289 10 2 343
246 245 216 187 194 199 168 146 141 151 146 137 102 115 128 94 95 91 86 95 107 98 98 101 91 82 87 65 53 48 37 21 24 21 292 353 333 349 319 357 351 359 14
242 228 197 203 194 195 179 157 148 144 127 123 113 100 95 94 95 107 103 93 95 92 97 95 93 89 91 81 68 59 56 24 358 38 74 352 306 323 322 322 335 338 359
220 213 195 189 204 188 164 149 144 139 140 142 141 150 149 147 138 129 117 105 89 91 92 92 95 90 84 76 75 68 74 89 40 347 36 130 207 315 317 308 311 355 320
211 200 195 197 184 162 155 149 135 141 145 144 154 141 119 109 118 119 113 103 84 85 89 92 88 79 77 77 75 65 62 67 108 95 344 324 288 256 247 301 311 307 307
207 201 184 148 144 148 141 144 142 137 140 135 132 143 134 135 131 130 119 110 98 85 80 82 83 84 81 75 74 73 67 66 73 143 218 218 254 289 282 288 308 300 299
190 169 161 161 154 164 155 147 148 137 131 136 130 132 134 135 135 137 133 130 113 86 89 89 83 79 82 78 72 66 40 15 332 272 264 216 230 225 245 284 302 303 306
184 184 179 170 166 162 158 149 150 134 133 128 118 114 119 120 119 124 125 108 109 113 111 96 88 83 81 76 63 50 336 285 295 283 264 259 242 235 226 259 308 312 286
177 182 174 174 163 159 160 148 140 125 124 121 120 114 114 118 121 111 101 106 112 114 102 95 91 76 69 60 36 2 320 312 288 278 278 240 261 247 247 247 251 281 308
173 172 173 160 154 146 130 123 132 130 122 114 116 116 115 111 111 108 107 107 103 100 98 90 82 71 52 34 10 328 305 311 305 289 286 267 249 249 249 245 248 245 267
179 170 153 141 123 119 127 124 124 123 117 114 114 114 110 108 102 103 108 109 105 101 98 97 87 62 34 4 338 322 300 326 309 298 280 278 268 255 254 246 252 257 255
160 149 141 138 137 131 130 131 128 121 119 118 113 110 109 106 103 105 109 107 105 98 102 92 76 45 5 339 347 328 320 307 305 297 300 289 298 276 262 263 263 257 259
104 120 133 137 131 131 125 128 127 120 119 116 116 111 108 107 109 109 107 106 109 99 83 76 57 16 352 346 332 309 305 305 295 297 298 289 286 282 275 265 266 269 271
135 144 141 135 130 128 126 124 119 122 120 117 118 117 115 116 115 114 113 108 103 95 82 68 46 14 344 333 317 311 302 304 315 308 297 293 288 282 278 269 272 295 294
156 157 143 135 130 123 121 123 121 120 122 120 118 118 117 115 115 112 108 103 96 94 86 61 29 7 345 331 313 299 304 310 308 301 297 285 288 304 309 307 313 299 292
155 147 138 137 135 134 134 129 126 124 125 121 119 124 122 118 114 112 113 104 95 84 64 32 17 359 333 320 324 327 302 296 302 298 288 275 293 293 308 311 306 303 307
158 158 155 149 142 142 140 137 133 124 116 118 124 126 122 115 115 116 108 100 89 71 46 24 2 327 310 320 327 323 312 299 288 285 286 292 297 308 291 290 294 303 306
157 149 143 131 132 130 122 117 123 121 120 121 123 122 120 113 113 107 103 96 79 51 32 346 326 325 322 328 325 323 318 291 275 274 276 282 289 287 298 308 308 306 302
140 135 135 133 132 131 129 121 116 117 120 125 127 125 119 118 116 108 103 87 58 32 350 312 335 334 302 325 332 327 295 275 275 279 273 279 296 307 315 321 313 312 307
122 129 129 126 121 127 127 123 125 124 127 133 125 116 113 114 113 116 96 70 73 358 343 334 325 309 315 327 324 324 301 286 296 292 279 304 317 316 321 322 320 319 306
113 121 121 125 128 129 124 120 124 126 123 112 107 102 104 109 115 99 84 71 34 8 350 318 308 324 317 306 323 326 324 313 315 319 321 310 312 323 327 324 331 300 312
113 111 110 109 115 122 120 121 117 118 110 107 105 104 105 98 103 100 73 57 27 1 337 333 324 298 288 305 323 330 330 324 326 320 313 304 324 326 326 329 314 324 331
103 106 113 107 91 101 123 115 117 114 112 106 105 104 99 94 87 82 61 42 10 356 324 312 301 304 307 288 317 322 321 327 322 319 313 327 325 327 328 318 324 325 314
103 112 110 105 92 81 89 109 117 114 109 106 108 114 111 90 69 56 51 38 352 334 318 308 305 286 302 296 299 293 307 316 319 318 323 324 327 323 318 320 315 313 312
97 101 105 102 96 100 98 104 113 113 106 107 109 97 89 88 59 27 263 334 287 261 290 286 286 305 314 311 326 326 323 328 328 333 332 322 323 320 318 316 315 314 312
101 94 94 100 100 101 101 100 105 112 114 108 111 117 101 80 56 16 339 335 324 326 328 328 327 318 319 326 329 325 336 333 333 339 321 319 317 316 316 315 313 311 313